Total_Precipitation_Accumulation
0.05 0.07 0.12 0.11 0.10 0.18 0.19 0.21 0.29 0.34 0.29 0.35 0.50 0.66 0.89 1.08 1.36 1.63 1.62 1.58 1.65 1.95 2.26 2.46 2.84 3.23 3.49 3.67 3.78 4.10 4.26 4.03 3.60 3.21 2.74 2.60 2.52 2.30 2.10 2.01 1.85 2.03 1.99 2.22
0.04 0.07 0.08 0.06 0.06 0.11 0.14 0.17 0.29 0.36 0.30 0.34 0.50 0.83 1.03 1.10 1.15 1.30 1.42 1.36 1.47 1.78 1.89 1.97 2.11 2.45 2.64 2.88 3.16 3.49 3.73 3.57 3.03 2.80 2.61 2.50 2.46 2.29 2.28 2.19 2.19 1.96 1.96 2.19
0.04 0.06 0.06 0.05 0.05 0.08 0.14 0.15 0.20 0.29 0.34 0.44 0.56 1.18 1.28 1.09 1.01 0.95 1.13 1.19 1.19 1.39 1.60 1.71 1.75 1.87 2.12 2.70 2.93 2.82 3.04 3.23 2.96 2.84 2.78 2.67 2.64 2.44 2.53 2.49 2.37 2.00 1.88 1.88
0.04 0.04 0.03 0.05 0.05 0.07 0.13 0.12 0.13 0.18 0.27 0.57 0.67 1.28 1.36 1.15 1.16 0.96 0.93 0.99 0.93 0.92 1.19 1.41 1.38 1.44 1.68 1.99 2.29 2.63 2.94 3.02 2.92 2.78 2.60 2.47 2.26 2.20 2.22 2.22 2.22 2.11 1.99 1.86
0.04 0.03 0.03 0.05 0.05 0.05 0.07 0.08 0.10 0.17 0.28 0.52 0.64 1.04 1.29 1.14 1.33 1.07 0.75 0.64 0.60 0.61 0.75 0.93 1.07 1.20 1.28 1.42 1.82 2.39 2.86 3.08 2.95 2.61 2.47 2.57 2.40 2.30 2.25 2.14 2.34 2.19 2.04 1.87
0.03 0.03 0.03 0.03 0.04 0.04 0.05 0.08 0.19 0.33 0.49 0.87 0.84 0.93 1.23 1.02 0.86 0.70 0.55 0.45 0.46 0.52 0.55 0.63 0.76 0.99 1.13 1.22 1.49 1.94 2.36 2.61 2.67 2.53 2.41 2.48 2.55 2.49 2.34 2.17 2.16 2.00 1.96 1.90
0.08 0.08 0.05 0.04 0.04 0.05 0.05 0.10 0.37 0.64 0.89 1.03 0.68 0.89 1.24 0.82 0.65 0.55 0.48 0.44 0.40 0.40 0.53 0.65 0.74 0.87 0.90 0.98 1.25 1.55 1.77 1.96 2.17 2.33 2.38 2.32 2.47 2.52 2.30 2.07 2.07 2.04 1.90 1.90
0.11 0.17 0.09 0.05 0.05 0.06 0.06 0.09 0.22 0.37 0.50 0.64 0.68 1.34 1.24 0.65 0.51 0.43 0.38 0.39 0.39 0.45 0.53 0.65 0.79 0.87 0.82 0.86 1.09 1.31 1.50 1.73 2.00 2.16 2.23 2.18 2.14 2.05 2.01 2.13 2.03 2.00 1.95 1.90
0.05 0.07 0.06 0.05 0.05 0.05 0.06 0.08 0.11 0.18 0.23 0.48 0.81 1.02 0.77 0.44 0.41 0.44 0.40 0.42 0.46 0.54 0.66 0.75 0.90 0.94 0.84 0.89 1.08 1.19 1.37 1.58 1.73 1.99 2.15 2.06 2.02 1.89 1.87 1.92 1.88 1.83 1.96 1.92
0.03 0.04 0.04 0.04 0.04 0.06 0.07 0.07 0.10 0.13 0.19 0.36 0.66 0.91 0.98 0.70 0.54 0.46 0.45 0.48 0.51 0.65 0.83 0.96 0.96 0.99 0.95 1.00 1.19 1.21 1.32 1.44 1.48 1.64 1.72 1.61 1.79 1.82 1.94 1.92 1.83 1.76 1.77 1.81
0.03 0.03 0.04 0.04 0.06 0.08 0.09 0.07 0.07 0.09 0.11 0.23 0.53 0.71 0.70 0.68 0.62 0.48 0.46 0.54 0.63 0.66 0.84 0.96 0.93 0.92 0.89 0.95 1.05 1.06 1.19 1.30 1.35 1.50 1.57 1.63 1.72 1.79 1.84 1.87 1.85 1.84 1.86 1.87
0.03 0.03 0.04 0.06 0.08 0.07 0.10 0.12 0.12 0.11 0.10 0.16 0.26 0.41 0.40 0.48 0.55 0.48 0.50 0.63 0.73 0.59 0.66 0.88 0.95 0.98 0.79 0.85 0.92 0.97 1.09 1.22 1.29 1.46 1.59 1.66 1.83 1.88 1.83 1.86 2.04 2.04 2.00 1.97
0.03 0.03 0.05 0.11 0.17 0.13 0.09 0.09 0.11 0.11 0.11 0.12 0.18 0.35 0.35 0.39 0.50 0.49 0.56 0.68 0.69 0.67 0.68 0.83 0.93 0.85 0.77 0.79 0.87 0.91 1.01 1.13 1.24 1.39 1.54 1.75 1.84 1.91 2.04 2.21 2.36 2.37 2.29 2.24
0.03 0.03 0.04 0.12 0.20 0.24 0.18 0.11 0.10 0.10 0.11 0.10 0.14 0.27 0.34 0.45 0.53 0.53 0.56 0.72 0.71 0.65 0.64 0.65 0.82 0.88 0.81 0.78 0.81 0.86 0.99 1.14 1.31 1.57 1.75 1.89 2.08 2.22 2.33 2.30 2.36 2.37 2.38 2.41
0.03 0.02 0.03 0.05 0.09 0.14 0.14 0.11 0.10 0.09 0.09 0.11 0.15 0.25 0.36 0.45 0.54 0.60 0.61 0.61 0.63 0.59 0.62 0.76 0.89 1.06 1.05 0.96 0.89 0.93 1.16 1.38 1.60 1.87 1.97 2.01 2.10 2.24 2.43 2.59 2.61 2.57 2.54 2.47
0.05 0.04 0.05 0.06 0.08 0.10 0.10 0.10 0.09 0.08 0.08 0.10 0.15 0.26 0.39 0.51 0.56 0.52 0.55 0.53 0.57 0.66 0.73 0.89 1.03 1.17 1.27 1.30 1.28 1.31 1.46 1.73 2.04 2.35 2.47 2.58 2.66 2.74 2.84 2.93 2.94 2.96 2.89 2.82
0.14 0.15 0.14 0.13 0.13 0.14 0.12 0.12 0.12 0.11 0.12 0.14 0.20 0.30 0.45 0.59 0.57 0.63 0.66 0.63 0.72 0.79 0.88 1.00 1.11 1.20 1.36 1.40 1.48 1.67 1.85 2.09 2.33 2.52 2.63 2.75 2.85 3.00 3.14 3.17 3.18 3.03 2.95 2.86
0.34 0.31 0.25 0.20 0.23 0.27 0.18 0.21 0.23 0.25 0.27 0.31 0.35 0.41 0.50 0.62 0.63 0.68 0.71 0.70 0.72 0.85 1.03 1.07 1.14 1.26 1.37 1.50 1.68 1.87 2.02 2.15 2.46 2.69 2.79 2.84 2.89 2.96 3.14 3.33 3.22 3.05 3.00 2.93
0.43 0.50 0.45 0.33 0.30 0.32 0.33 0.30 0.31 0.40 0.52 0.49 0.64 0.71 0.67 0.70 0.76 0.78 0.78 0.93 0.94 0.93 1.02 1.09 1.21 1.32 1.45 1.53 1.59 1.61 1.74 1.94 2.18 2.41 2.60 2.62 2.75 2.92 3.01 3.05 3.06 3.11 3.07 2.85
0.35 0.40 0.47 0.48 0.50 0.50 0.50 0.49 0.39 0.45 0.80 0.80 0.88 0.98 0.93 0.96 1.19 1.11 0.85 0.83 0.95 1.04 1.07 1.16 1.31 1.39 1.39 1.43 1.46 1.54 1.70 1.93 2.15 2.36 2.57 2.75 2.89 3.02 3.03 3.07 3.17 3.19 3.14 3.09
0.53 0.55 0.54 0.55 0.60 0.60 0.53 0.48 0.50 0.85 1.13 1.11 1.18 1.22 1.15 1.19 1.26 1.20 1.02 0.93 0.94 1.00 1.05 1.14 1.30 1.45 1.47 1.45 1.62 1.80 1.94 2.10 2.28 2.40 2.49 2.64 2.83 3.05 3.29 3.46 3.38 3.34 3.29 3.21
0.78 0.77 0.75 0.78 0.97 1.09 0.80 0.73 0.96 1.16 0.92 0.98 1.16 1.37 1.39 1.33 1.26 1.20 1.11 1.03 0.97 0.92 0.99 1.18 1.31 1.43 1.57 1.68 1.83 1.99 2.03 2.10 2.30 2.52 2.60 2.67 2.86 2.94 3.09 3.34 3.35 3.27 3.24 3.15
0.91 1.01 1.09 1.14 1.30 1.17 1.00 1.02 0.96 1.05 1.22 1.28 1.37 1.57 1.60 1.45 1.32 1.33 1.25 1.13 1.05 1.01 1.05 1.18 1.30 1.45 1.55 1.73 1.92 2.08 2.17 2.23 2.33 2.47 2.64 2.81 2.91 2.97 3.08 3.25 3.30 3.27 3.18 3.06
0.94 0.81 1.03 1.35 1.49 1.31 1.14 1.11 1.06 1.12 1.32 1.40 1.38 1.42 1.46 1.43 1.36 1.48 1.48 1.32 1.28 1.28 1.26 1.30 1.39 1.47 1.56 1.66 1.86 2.06 2.19 2.24 2.36 2.43 2.49 2.64 2.78 2.90 3.07 3.09 2.96 2.84 2.71 2.64
1.00 1.01 1.20 1.61 1.81 1.73 1.52 1.38 1.30 1.32 1.28 1.36 1.31 1.33 1.34 1.38 1.38 1.45 1.57 1.60 1.52 1.39 1.33 1.38 1.46 1.56 1.60 1.64 1.73 1.97 2.18 2.28 2.33 2.45 2.51 2.50 2.52 2.60 2.76 2.84 2.80 2.67 2.50 2.37
1.10 1.31 1.64 2.01 1.99 2.09 1.95 1.62 1.44 1.50 1.47 1.42 1.37 1.44 1.50 1.47 1.43 1.47 1.61 1.65 1.61 1.50 1.44 1.47 1.51 1.54 1.58 1.68 1.80 1.91 2.18 2.45 2.54 2.52 2.39 2.31 2.23 2.23 2.29 2.31 2.34 2.46 2.35 2.34